CHAR37 Weather Reports


Display with metric or nautical units.
time (UTC)temp
F
wind
direction
speed
MPH
gust
MPH
rain 1hr
in
rain 24hr
in
rain mn
in
humidity
%
barometer
mb
20260508023047 50 343 1.0 4.0 0.00 0.15 0.13 49 1006.5
20260508021601 51 350 2.0 9.0 0.00 0.15 0.13 47 1006.5
20260508020054 52 5 5.0 10.0 0.00 0.15 0.13 46 1006.2
20260508014552 52 344 7.0 11.0 0.00 0.16 0.13 47 1006.1
20260508013048 52 347 2.0 5.0 0.00 0.16 0.13 46 1006.0
20260508011548 53 344 3.0 7.0 0.00 0.16 0.13 45 1006.0
20260508010053 54 341 1.0 9.0 0.00 0.16 0.13 42 1005.8
20260508004556 55 331 5.0 11.0 0.00 0.18 0.13 42 1005.4
20260508003054 55 346 6.0 10.0 0.00 0.18 0.13 41 1005.1
20260508001550 56 343 3.0 6.0 0.00 0.18 0.13 42 1005.0
20260508000053 57 337 6.0 9.0 0.00 0.18 0.13 40 1004.7
20260507234548 57 349 3.0 8.0 0.00 0.18 0.13 39 1004.7
20260507233053 58 327 5.0 10.0 0.00 0.18 0.13 38 1004.6
20260507211556 61 321 7.0 12.0 0.00 0.25 0.13 33 1003.3
20260507210108 61 280 9.0 18.0 0.00 0.25 0.13 35 1003.3
20260507204550 61 320 8.0 15.0 0.00 0.30 0.13 34 1003.1
20260507203116 61 318 9.0 20.0 0.00 0.30 0.13 37 1003.1
20260507201552 61 355 10.0 19.0 0.00 0.30 0.13 34 1003.0
20260507200046 61 304 9.0 18.0 0.00 0.30 0.13 39 1003.0
20260507194604 59 204 6.0 13.0 0.00 0.35 0.13 46 1002.9
20260507193049 54 178 8.0 15.0 0.00 0.35 0.13 72 1003.2
20260507191554 53 150 7.0 10.0 0.00 0.35 0.13 77 1003.3
20260507190057 51 183 10.0 14.0 0.00 0.35 0.13 80 1003.3
20260507184553 52 175 10.0 13.0 0.00 0.35 0.13 79 1003.5
20260507183056 50 178 11.0 16.0 0.00 0.35 0.13 81 1003.5
20260507181555 50 175 13.0 17.0 0.00 0.35 0.13 80 1003.8
20260507093049 47 0 0.0 4.0 0.00 0.35 0.13 88 1005.6
20260507091546 47 338 5.0 9.0 0.00 0.35 0.13 87 1005.6
20260507090050 48 331 4.0 13.0 0.00 0.35 0.13 86 1005.6
20260507084548 48 338 7.0 14.0 0.00 0.35 0.13 87 1005.8
20260507083049 48 329 8.0 13.0 0.00 0.35 0.13 90 1005.0
20260507081553 49 334 5.0 9.0 0.00 0.35 0.13 91 1005.4
20260507080053 49 333 3.0 10.0 0.00 0.35 0.13 91 1005.1
20260507074558 49 325 5.0 10.0 0.00 0.35 0.13 91 1005.2
20260507073101 49 350 5.0 14.0 0.00 0.35 0.13 91 1004.9
20260507071554 49 335 5.0 10.0 0.00 0.35 0.13 92 1005.0
20260507070105 50 320 4.0 7.0 0.00 0.35 0.13 93 1004.8
20260507064556 50 336 2.0 5.0 0.00 0.35 0.13 94 1004.4
20260507060055 50 335 5.0 9.0 0.00 0.35 0.13 95 1004.2
20260507054550 51 338 6.0 15.0 0.01 0.35 0.13 96 1004.5
20260507053102 51 355 6.0 15.0 0.05 0.35 0.13 97 1004.1
20260507051553 52 336 3.0 9.0 0.11 0.35 0.13 97 1004.3
20260507050050 51 344 4.0 8.0 0.13 0.35 0.13 97 1003.9
20260507044606 50 323 2.0 6.0 0.13 0.34 0.12 97 1003.7
20260507043050 50 298 7.0 16.0 0.09 0.30 0.08 97 1004.2
20260507041551 51 231 6.0 13.0 0.03 0.24 0.02 97 1003.7
20260507040101 51 187 7.0 11.0 0.01 0.22 0.00 97 1003.3
20260507034547 50 215 7.0 12.0 0.00 0.21 0.21 97 1003.4
20260507033107 50 188 9.0 17.0 0.01 0.21 0.21 97 1003.5
20260507031559 50 184 11.0 18.0 0.01 0.21 0.21 97 1003.5
20260507030107 50 170 12.0 19.0 0.01 0.21 0.21 97 1003.5